Time,TemperatureF,DewpointF,PressureIn,WindDirection,WindDirectionDegrees,WindSpeedMPH,WindSpeedGustMPH,Humidity,HourlyPrecipIn,Conditions,Clouds,dailyrainin,SolarRadiationWatts/m^2,SoftwareType,DateUTC
2013-04-10 00:02:00,27.0,-99.9,-100.00,NE,39,1.0,4.0,0,0.00,,,0.48,0.000000,,2013-04-10 07:02:00,
2013-04-10 00:33:00,28.0,-99.9,-100.00,WSW,242,2.0,5.0,0,0.00,,,0.48,0.000000,,2013-04-10 07:33:00,
2013-04-10 00:43:00,28.0,-99.9,-100.00,WSW,242,2.0,5.0,0,0.00,,,0.48,0.000000,,2013-04-10 07:43:00,
2013-04-10 00:52:00,28.0,-99.9,-100.00,WSW,242,2.0,5.0,0,0.00,,,0.48,0.000000,,2013-04-10 07:52:00,
2013-04-10 01:02:00,28.0,-99.9,-100.00,WSW,242,2.0,5.0,0,0.00,,,0.48,0.000000,,2013-04-10 08:02:00,
2013-04-10 01:32:00,30.0,-99.9,-100.00,NNE,24,9.0,14.0,0,0.00,,,0.48,0.000000,,2013-04-10 08:32:00,
2013-04-10 01:43:00,30.0,-99.9,-100.00,NNE,24,9.0,14.0,0,0.00,,,0.48,0.000000,,2013-04-10 08:43:00,
2013-04-10 01:52:00,30.0,-99.9,-100.00,NNE,24,9.0,14.0,0,0.00,,,0.48,0.000000,,2013-04-10 08:52:00,
2013-04-10 02:02:00,30.0,-99.9,-100.00,NNE,24,9.0,14.0,0,0.00,,,0.48,0.000000,,2013-04-10 09:02:00,
2013-04-10 02:03:00,30.0,-99.9,-100.00,NNE,15,13.0,16.0,0,0.00,,,0.48,0.000000,,2013-04-10 09:03:00,
2013-04-10 02:33:00,30.0,-99.9,-100.00,NNE,15,13.0,16.0,0,0.00,,,0.48,0.000000,,2013-04-10 09:33:00,
2013-04-10 02:43:00,30.0,-99.9,-100.00,NNE,15,13.0,16.0,0,0.00,,,0.48,0.000000,,2013-04-10 09:43:00,
2013-04-10 02:53:00,30.0,-99.9,-100.00,NNE,15,13.0,16.0,0,0.00,,,0.48,0.000000,,2013-04-10 09:53:00,
2013-04-10 03:03:00,30.0,-99.9,-100.00,NNE,23,13.0,21.0,0,0.00,,,0.48,0.000000,,2013-04-10 10:03:00,
2013-04-10 03:33:00,30.0,-99.9,-100.00,NNE,23,13.0,21.0,0,0.00,,,0.48,0.000000,,2013-04-10 10:33:00,
2013-04-10 03:43:00,30.0,-99.9,-100.00,NNE,23,13.0,21.0,0,0.00,,,0.48,0.000000,,2013-04-10 10:43:00,
2013-04-10 03:53:00,30.0,-99.9,-100.00,NNE,23,13.0,21.0,0,0.00,,,0.48,0.000000,,2013-04-10 10:53:00,
2013-04-10 06:33:00,29.0,-99.9,-100.00,NE,37,7.0,18.0,0,-99.99,,,0.48,0.000000,,2013-04-10 13:33:00,
2013-04-10 06:43:00,29.0,-99.9,-100.00,NE,37,7.0,18.0,0,-99.99,,,0.48,0.000000,,2013-04-10 13:43:00,
2013-04-10 06:53:00,29.0,-99.9,-100.00,NE,37,7.0,18.0,0,-99.99,,,0.48,0.000000,,2013-04-10 13:53:00,
2013-04-10 07:02:00,29.0,-99.9,-100.00,NE,37,7.0,18.0,0,-99.99,,,0.48,0.000000,,2013-04-10 14:02:00,
2013-04-10 07:03:00,29.0,-99.9,-100.00,NNE,31,11.0,20.0,0,0.00,,,0.48,23.000000,,2013-04-10 14:03:00,
2013-04-10 07:22:00,29.0,-99.9,-100.00,NNE,31,11.0,20.0,0,0.00,,,0.48,23.000000,,2013-04-10 14:22:00,
2013-04-10 07:33:00,29.0,-99.9,-100.00,NNE,31,11.0,20.0,0,0.00,,,0.48,23.000000,,2013-04-10 14:33:00,
2013-04-10 07:42:00,29.0,-99.9,-100.00,NNE,31,11.0,20.0,0,0.00,,,0.48,23.000000,,2013-04-10 14:42:00,
2013-04-10 07:52:00,29.0,-99.9,-100.00,NNE,31,11.0,20.0,0,0.00,,,0.48,23.000000,,2013-04-10 14:52:00,
2013-04-10 08:03:00,30.0,-99.9,-100.00,NE,40,9.0,17.0,0,0.00,,,0.48,117.000000,,2013-04-10 15:03:00,
2013-04-10 08:33:00,30.0,-99.9,-100.00,NE,40,9.0,17.0,0,0.00,,,0.48,117.000000,,2013-04-10 15:33:00,
2013-04-10 08:43:00,30.0,-99.9,-100.00,NE,40,9.0,17.0,0,0.00,,,0.48,117.000000,,2013-04-10 15:43:00,
2013-04-10 08:53:00,30.0,-99.9,-100.00,NE,40,9.0,17.0,0,0.00,,,0.48,117.000000,,2013-04-10 15:53:00,
2013-04-10 09:03:00,32.0,-99.9,-100.00,NNE,28,13.0,18.0,0,0.00,,,0.48,351.000000,,2013-04-10 16:03:00,
2013-04-10 09:23:00,32.0,-99.9,-100.00,NNE,28,13.0,18.0,0,0.00,,,0.48,351.000000,,2013-04-10 16:23:00,
2013-04-10 09:34:00,32.0,-99.9,-100.00,NNE,28,13.0,18.0,0,0.00,,,0.48,351.000000,,2013-04-10 16:34:00,
2013-04-10 09:44:00,32.0,-99.9,-100.00,NNE,28,13.0,18.0,0,0.00,,,0.48,351.000000,,2013-04-10 16:44:00,
2013-04-10 09:53:00,32.0,-99.9,-100.00,NNE,28,13.0,18.0,0,0.00,,,0.48,351.000000,,2013-04-10 16:53:00,
2013-04-10 10:03:00,35.0,-99.9,-100.00,NNE,25,14.0,23.0,0,0.00,,,0.48,674.000000,,2013-04-10 17:03:00,
2013-04-10 10:34:00,35.0,-99.9,-100.00,NNE,25,14.0,23.0,0,0.00,,,0.48,674.000000,,2013-04-10 17:34:00,
2013-04-10 10:43:00,35.0,-99.9,-100.00,NNE,25,14.0,23.0,0,0.00,,,0.48,674.000000,,2013-04-10 17:43:00,
2013-04-10 10:53:00,35.0,-99.9,-100.00,NNE,25,14.0,23.0,0,0.00,,,0.48,674.000000,,2013-04-10 17:53:00,
2013-04-10 11:03:00,36.0,-99.9,-100.00,NNE,14,15.0,22.0,0,0.00,,,0.48,861.000000,,2013-04-10 18:03:00,
2013-04-10 11:23:00,36.0,-99.9,-100.00,NNE,14,15.0,22.0,0,0.00,,,0.48,861.000000,,2013-04-10 18:23:00,
2013-04-10 11:33:00,36.0,-99.9,-100.00,NNE,14,15.0,22.0,0,0.00,,,0.48,861.000000,,2013-04-10 18:33:00,
2013-04-10 11:43:00,36.0,-99.9,-100.00,NNE,14,15.0,22.0,0,0.00,,,0.48,861.000000,,2013-04-10 18:43:00,
2013-04-10 11:53:00,36.0,-99.9,-100.00,NNE,14,15.0,22.0,0,0.00,,,0.48,861.000000,,2013-04-10 18:53:00,
2013-04-10 12:03:00,40.0,-99.9,-100.00,North,5,16.0,27.0,0,0.00,,,0.48,1018.000000,,2013-04-10 19:03:00,
2013-04-10 12:22:00,40.0,-99.9,-100.00,North,5,16.0,27.0,0,0.00,,,0.48,1018.000000,,2013-04-10 19:22:00,
2013-04-10 12:34:00,40.0,-99.9,-100.00,North,5,16.0,27.0,0,0.00,,,0.48,1018.000000,,2013-04-10 19:34:00,
2013-04-10 12:42:00,40.0,-99.9,-100.00,North,5,16.0,27.0,0,0.00,,,0.48,1018.000000,,2013-04-10 19:42:00,
2013-04-10 12:53:00,40.0,-99.9,-100.00,North,5,16.0,27.0,0,0.00,,,0.48,1018.000000,,2013-04-10 19:53:00,
2013-04-10 13:03:00,41.0,-99.9,-100.00,North,3,17.0,28.0,0,0.00,,,0.48,1056.000000,,2013-04-10 20:03:00,
2013-04-10 13:33:00,41.0,-99.9,-100.00,North,3,17.0,28.0,0,0.00,,,0.48,1056.000000,,2013-04-10 20:33:00,
2013-04-10 13:43:00,41.0,-99.9,-100.00,North,3,17.0,28.0,0,0.00,,,0.48,1056.000000,,2013-04-10 20:43:00,
2013-04-10 13:53:00,41.0,-99.9,-100.00,North,3,17.0,28.0,0,0.00,,,0.48,1056.000000,,2013-04-10 20:53:00,
2013-04-10 14:03:00,42.0,-99.9,-100.00,North,9,17.0,27.0,0,0.00,,,0.39,1022.000000,,2013-04-10 21:03:00,
2013-04-10 14:33:00,42.0,-99.9,-100.00,North,9,17.0,27.0,0,0.00,,,0.39,1022.000000,,2013-04-10 21:33:00,
2013-04-10 14:43:00,42.0,-99.9,-100.00,North,9,17.0,27.0,0,0.00,,,0.39,1022.000000,,2013-04-10 21:43:00,
2013-04-10 14:53:00,42.0,-99.9,-100.00,North,9,17.0,27.0,0,0.00,,,0.39,1022.000000,,2013-04-10 21:53:00,
2013-04-10 15:03:00,44.0,-99.9,-100.00,North,4,16.0,27.0,0,0.00,,,0.14,918.000000,,2013-04-10 22:03:00,
2013-04-10 15:34:00,44.0,-99.9,-100.00,North,4,16.0,27.0,0,0.00,,,0.14,918.000000,,2013-04-10 22:34:00,
2013-04-10 15:43:00,44.0,-99.9,-100.00,North,4,16.0,27.0,0,0.00,,,0.14,918.000000,,2013-04-10 22:43:00,
2013-04-10 15:53:00,44.0,-99.9,-100.00,North,4,16.0,27.0,0,0.00,,,0.14,918.000000,,2013-04-10 22:53:00,
2013-04-10 16:33:00,45.0,-99.9,-100.00,WSW,242,15.0,26.0,0,0.00,,,0.04,751.000000,,2013-04-10 23:33:00,
2013-04-10 16:43:00,45.0,-99.9,-100.00,WSW,242,15.0,26.0,0,0.00,,,0.04,751.000000,,2013-04-10 23:43:00,
2013-04-10 16:53:00,45.0,-99.9,-100.00,WSW,242,15.0,26.0,0,0.00,,,0.04,751.000000,,2013-04-10 23:53:00,
2013-04-10 17:02:00,45.0,-99.9,-100.00,WSW,242,15.0,26.0,0,0.00,,,0.04,751.000000,,2013-04-11 00:02:00,
2013-04-10 17:32:00,47.0,-99.9,-100.00,West,263,15.0,25.0,0,0.00,,,0.00,192.000000,,2013-04-11 00:32:00,
2013-04-10 17:43:00,47.0,-99.9,-100.00,West,263,15.0,25.0,0,0.00,,,0.00,192.000000,,2013-04-11 00:43:00,
2013-04-10 17:53:00,47.0,-99.9,-100.00,West,263,15.0,25.0,0,0.00,,,0.00,192.000000,,2013-04-11 00:53:00,
2013-04-10 18:02:00,47.0,-99.9,-100.00,West,263,15.0,25.0,0,0.00,,,0.00,192.000000,,2013-04-11 01:02:00,
2013-04-10 18:03:00,43.0,-99.9,-100.00,NNW,342,7.0,22.0,0,0.00,,,0.00,28.000000,,2013-04-11 01:03:00,
2013-04-10 18:33:00,43.0,-99.9,-100.00,NNW,342,7.0,22.0,0,0.00,,,0.00,28.000000,,2013-04-11 01:33:00,
2013-04-10 18:42:00,43.0,-99.9,-100.00,NNW,342,7.0,22.0,0,0.00,,,0.00,28.000000,,2013-04-11 01:42:00,
2013-04-10 18:53:00,43.0,-99.9,-100.00,NNW,342,7.0,22.0,0,0.00,,,0.00,28.000000,,2013-04-11 01:53:00,
2013-04-10 19:32:00,37.0,-99.9,-100.00,SSW,200,1.0,13.0,0,0.00,,,0.00,12.000000,,2013-04-11 02:32:00,
2013-04-10 19:42:00,37.0,-99.9,-100.00,SSW,200,1.0,13.0,0,0.00,,,0.00,12.000000,,2013-04-11 02:42:00,
2013-04-10 19:53:00,37.0,-99.9,-100.00,SSW,200,1.0,13.0,0,0.00,,,0.00,12.000000,,2013-04-11 02:53:00,
2013-04-10 20:02:00,37.0,-99.9,-100.00,SSW,200,1.0,13.0,0,0.00,,,0.00,12.000000,,2013-04-11 03:02:00,
2013-04-10 20:03:00,31.0,-99.9,-100.00,South,169,3.0,5.0,0,0.00,,,0.00,0.000000,,2013-04-11 03:03:00,
2013-04-10 20:33:00,31.0,-99.9,-100.00,South,169,3.0,5.0,0,0.00,,,0.00,0.000000,,2013-04-11 03:33:00,
2013-04-10 20:43:00,31.0,-99.9,-100.00,South,169,3.0,5.0,0,0.00,,,0.00,0.000000,,2013-04-11 03:43:00,
2013-04-10 20:54:00,31.0,-99.9,-100.00,South,169,3.0,5.0,0,0.00,,,0.00,0.000000,,2013-04-11 03:54:00,
2013-04-10 21:03:00,33.0,-99.9,-100.00,SSE,165,4.0,7.0,0,0.00,,,0.00,0.000000,,2013-04-11 04:03:00,
2013-04-10 21:33:00,33.0,-99.9,-100.00,SSE,165,4.0,7.0,0,0.00,,,0.00,0.000000,,2013-04-11 04:33:00,
2013-04-10 21:43:00,33.0,-99.9,-100.00,SSE,165,4.0,7.0,0,0.00,,,0.00,0.000000,,2013-04-11 04:43:00,
2013-04-10 21:53:00,33.0,-99.9,-100.00,SSE,165,4.0,7.0,0,0.00,,,0.00,0.000000,,2013-04-11 04:53:00,
2013-04-10 22:23:00,32.0,-99.9,-100.00,South,172,3.0,6.0,0,0.00,,,0.00,0.000000,,2013-04-11 05:23:00,
2013-04-10 22:32:00,32.0,-99.9,-100.00,South,172,3.0,6.0,0,0.00,,,0.00,0.000000,,2013-04-11 05:32:00,
2013-04-10 22:42:00,32.0,-99.9,-100.00,South,172,3.0,6.0,0,0.00,,,0.00,0.000000,,2013-04-11 05:42:00,
2013-04-10 22:52:00,32.0,-99.9,-100.00,South,172,3.0,6.0,0,0.00,,,0.00,0.000000,,2013-04-11 05:52:00,
2013-04-10 23:02:00,32.0,-99.9,-100.00,South,172,3.0,6.0,0,0.00,,,0.00,0.000000,,2013-04-11 06:02:00,
2013-04-10 23:32:00,30.0,-99.9,-100.00,SSE,165,3.0,8.0,0,0.00,,,0.00,0.000000,,2013-04-11 06:32:00,
2013-04-10 23:42:00,30.0,-99.9,-100.00,SSE,165,3.0,8.0,0,0.00,,,0.00,0.000000,,2013-04-11 06:42:00,
2013-04-10 23:53:00,30.0,-99.9,-100.00,SSE,165,3.0,8.0,0,0.00,,,0.00,0.000000,,2013-04-11 06:53:00,